Port Angeles, WA

9:14 AM PDT on May 22, 2018 (GMT -0700)
Fairchild International

Weather History for KCLM - May, 2014

Change the Weather History Date:

Saturday, May 17, 2014

  Actual Average Record
Temperature  
Mean Temperature 56 °F -  
Max Temperature 61 °F 60 °F 78 °F (1956)
Min Temperature 52 °F 44 °F 36 °F (1971)
Degree Days  
Heating Degree Days 10    
Growing Degree Days 6 (Base 50)    
Moisture  
Dew Point 49 °F    
Average Humidity 80    
Maximum Humidity 89    
Minimum Humidity 67    
Precipitation  
Precipitation 0.00 in - - ()
Sea Level Pressure  
Sea Level Pressure 29.99 in    
Wind  
Wind Speed 5 mph (WNW)    
Max Wind Speed 10 mph    
Max Gust Speed -    
Visibility 10 miles    
Events Rain    
Averages and records for this station are not official NWS values.
T = Trace of Precipitation, MM = Missing Value Source: NWS Daily Summary

Daily Weather History Graph

Daily Weather History Graph

Search for Another Location

Airport or City:

Astronomy

May. 17, 2014 Rise Set
Actual Time 5:32 AM PDT 8:49 PM PDT
Civil Twilight 4:54 AM PDT 9:27 PM PDT
Nautical Twilight 4:05 AM PDT 10:16 PM PDT
Astronomical Twilight 3:02 AM PDT 11:20 PM PDT
Moon 11:52 PM PDT (5/17) 8:22 AM PDT (5/17)
Length of Visible Light 16h 32m
Length of Day
15h 17m
Waning Gibbous, 88% of the Moon is Illuminated
May 17
Waning Gibbous
May 21
Last Quarter
May 28
New
Jun 5
First Quarter
Jun 12
Full

Hourly Weather History & Observations

Time (PDT) Temp. Dew Point Humidity Pressure Visibility Wind Dir Wind Speed Gust Speed Precip Events Conditions
12:53 AM 53.1 °F 48.9 °F 86% 30.08 in 10.0 mi WNW 8.1 mph - N/A   Overcast
1:39 AM 53.1 °F 48.9 °F 86% 30.07 in 10.0 mi NW 6.9 mph - N/A   Overcast
1:53 AM 53.1 °F 50.0 °F 89% 30.07 in 10.0 mi WNW 6.9 mph - N/A   Overcast
2:46 AM 53.1 °F 48.9 °F 86% 30.06 in 10.0 mi West 5.8 mph - N/A   Overcast
2:53 AM 53.1 °F 48.9 °F 86% 30.06 in 10.0 mi WSW 3.5 mph - N/A   Overcast
3:19 AM 53.1 °F 48.9 °F 86% 30.05 in 10.0 mi WNW 3.5 mph - N/A   Overcast
3:53 AM 52.0 °F 48.9 °F 89% 30.04 in 10.0 mi West 3.5 mph - N/A   Overcast
4:53 AM 52.0 °F 48.9 °F 89% 30.04 in 10.0 mi Calm Calm - N/A   Overcast
5:53 AM 52.0 °F 48.9 °F 89% 30.04 in 10.0 mi Calm Calm - N/A   Overcast
6:26 AM 52.0 °F 48.9 °F 89% 30.03 in 10.0 mi Calm Calm - N/A   Overcast
6:53 AM 52.0 °F 48.9 °F 89% 30.04 in 10.0 mi Calm Calm - N/A   Overcast
7:53 AM 54.0 °F 48.9 °F 83% 30.03 in 10.0 mi Calm Calm - N/A   Overcast
8:11 AM 54.0 °F 48.0 °F 80% 30.03 in 10.0 mi West 3.5 mph - N/A   Overcast
8:53 AM 55.0 °F 48.0 °F 77% 30.02 in 10.0 mi Calm Calm - N/A   Overcast
9:24 AM 55.9 °F 48.9 °F 77% 30.02 in 10.0 mi Calm Calm - N/A   Overcast
9:53 AM 55.0 °F 48.9 °F 80% 30.01 in 10.0 mi North 4.6 mph - N/A   Overcast
10:53 AM 57.9 °F 48.9 °F 72% 30.00 in 10.0 mi NNW 6.9 mph - N/A   Partly Cloudy
11:53 AM 59.0 °F 48.9 °F 69% 29.99 in 10.0 mi North 8.1 mph - N/A   Mostly Cloudy
12:53 PM 59.0 °F 48.9 °F 69% 29.99 in 10.0 mi North 5.8 mph - N/A   Overcast
1:53 PM 57.9 °F 48.9 °F 72% 29.99 in 10.0 mi NNW 6.9 mph - N/A   Overcast
2:53 PM 57.9 °F 48.0 °F 70% 29.97 in 10.0 mi WNW 6.9 mph - N/A   Overcast
3:53 PM 59.0 °F 48.9 °F 69% 29.96 in 10.0 mi WNW 9.2 mph - N/A   Overcast
4:53 PM 59.0 °F 48.0 °F 67% 29.94 in 10.0 mi WNW 6.9 mph - N/A   Overcast
5:53 PM 57.9 °F 48.9 °F 72% 29.94 in 10.0 mi NW 6.9 mph - N/A   Overcast
6:53 PM 55.4 °F 50.0 °F 82% 29.92 in 10.0 mi West 6.9 mph - N/A Rain Light Rain
7:53 PM 55.0 °F 48.9 °F 80% 29.92 in 10.0 mi West 6.9 mph - 0.00 in   Overcast
8:44 PM 54.0 °F 48.0 °F 80% 29.91 in 10.0 mi West 8.1 mph - N/A   Overcast
8:53 PM 54.0 °F 48.0 °F 80% 29.91 in 10.0 mi West 9.2 mph - N/A   Overcast
9:53 PM 53.1 °F 48.0 °F 83% 29.91 in 10.0 mi West 10.4 mph - N/A   Overcast
10:53 PM 53.1 °F 46.9 °F 80% 29.90 in 10.0 mi West 8.1 mph - N/A   Overcast
11:12 PM 52.0 °F 46.9 °F 83% 29.89 in 10.0 mi West 6.9 mph - N/A   Mostly Cloudy
11:53 PM 52.0 °F 46.9 °F 83% 29.88 in 10.0 mi West 9.2 mph - N/A   Mostly Cloudy